TimeICT,TemperatureF,Dew PointF,Humidity,Sea Level PressureIn,VisibilityMPH,Wind Direction,Wind SpeedMPH,Gust SpeedMPH,PrecipitationIn,Events,Conditions,WindDirDegrees,DateUTC
12:00 AM,80.6,77.0,89,29.71,5.6,Calm,Calm,-,N/A,,Scattered Clouds,0,2013-09-17 17:00:00
12:30 AM,80.6,75.2,84,29.68,5.6,Calm,Calm,-,N/A,,Scattered Clouds,0,2013-09-17 17:30:00
1:00 AM,80.6,75.2,84,29.68,5.6,Calm,Calm,-,N/A,,Scattered Clouds,0,2013-09-17 18:00:00
7:00 AM,,,,,,Calm,Calm,,,,,,2013-09-18 00:00:00
7:00 AM,78.8,75.2,89,29.71,5.0,Calm,Calm,-,N/A,Rain,Light Rain,0,2013-09-18 00:00:00
7:30 AM,78.8,75.2,89,29.71,5.0,Calm,Calm,-,N/A,Rain,Light Rain,0,2013-09-18 00:30:00
8:00 AM,78.8,77.0,94,29.74,5.0,Calm,Calm,-,N/A,Rain,Light Rain,0,2013-09-18 01:00:00
8:30 AM,78.8,75.2,89,29.74,5.0,West,2.3,15.0,N/A,Rain,Light Rain,280,2013-09-18 01:30:00
9:00 AM,77.0,75.2,94,29.74,5.0,Calm,Calm,-,N/A,Rain,Light Rain,0,2013-09-18 02:00:00
9:30 AM,78.8,75.2,89,29.74,5.0,Calm,Calm,-,N/A,Rain,Light Rain,0,2013-09-18 02:30:00
10:30 AM,80.6,77.0,89,29.74,5.6,Calm,Calm,-,N/A,,Mostly Cloudy,0,2013-09-18 03:30:00
11:00 AM,80.6,77.0,89,29.74,5.6,Calm,Calm,-,N/A,Rain,Light Rain,0,2013-09-18 04:00:00
11:30 AM,80.6,77.0,89,29.74,5.6,Calm,Calm,-,N/A,Rain,Light Rain,0,2013-09-18 04:30:00
12:00 PM,80.6,77.0,89,29.74,5.6,Calm,Calm,-,N/A,Rain,Light Rain,0,2013-09-18 05:00:00
12:05 PM,80.6,77.0,89,29.71,3.7,Calm,Calm,-,N/A,Rain,Rain,0,2013-09-18 05:05:00
1:00 PM,80.6,77.0,89,29.68,4.3,Calm,Calm,-,N/A,Rain,Light Rain,0,2013-09-18 06:00:00
1:30 PM,82.4,77.0,84,29.65,5.6,Calm,Calm,-,N/A,Rain,Light Rain,0,2013-09-18 06:30:00
2:00 PM,82.4,77.0,84,29.65,5.6,Calm,Calm,-,N/A,Rain,Light Rain,0,2013-09-18 07:00:00
2:30 PM,82.4,77.0,84,29.65,5.6,Calm,Calm,-,N/A,Rain,Light Rain,0,2013-09-18 07:30:00
3:00 PM,78.8,77.0,94,29.62,3.7,Calm,Calm,-,N/A,Rain,Light Rain,0,2013-09-18 08:00:00
4:00 PM,78.8,77.0,94,29.62,4.3,Calm,Calm,-,N/A,Rain,Light Rain,0,2013-09-18 09:00:00
4:30 PM,80.6,77.0,89,29.62,4.3,Calm,Calm,-,N/A,Rain,Light Rain,0,2013-09-18 09:30:00
5:00 PM,80.6,78.8,94,29.62,4.3,Calm,Calm,-,N/A,Rain,Light Rain,0,2013-09-18 10:00:00
5:30 PM,80.6,78.8,94,29.62,4.3,Calm,Calm,-,N/A,Rain,Light Rain,0,2013-09-18 10:30:00
6:00 PM,80.6,78.8,94,29.62,4.3,Calm,Calm,-,N/A,Rain,Light Rain,0,2013-09-18 11:00:00
6:30 PM,80.6,78.8,94,29.62,4.3,Calm,Calm,-,N/A,Rain,Light Rain,0,2013-09-18 11:30:00
7:00 PM,80.6,78.8,94,29.65,4.3,Calm,Calm,-,N/A,Rain,Light Rain,0,2013-09-18 12:00:00
7:30 PM,80.6,78.8,94,29.65,4.3,Calm,Calm,-,N/A,Rain,Light Rain,0,2013-09-18 12:30:00
8:00 PM,80.6,78.8,94,29.65,4.3,Calm,Calm,-,N/A,Rain,Light Rain,0,2013-09-18 13:00:00
8:30 PM,78.8,77.0,94,29.68,4.3,Calm,Calm,-,N/A,Rain,Light Rain,0,2013-09-18 13:30:00
9:00 PM,78.8,77.0,94,29.68,5.0,Calm,Calm,-,N/A,Rain,Light Rain,0,2013-09-18 14:00:00
9:30 PM,78.8,75.2,89,29.68,5.0,Calm,Calm,-,N/A,Rain,Light Rain,0,2013-09-18 14:30:00
10:00 PM,78.8,75.2,89,29.68,5.0,Calm,Calm,-,N/A,Rain,Light Rain,0,2013-09-18 15:00:00
10:30 PM,78.8,75.2,89,29.68,5.0,Calm,Calm,-,N/A,Rain,Light Rain,0,2013-09-18 15:30:00
11:00 PM,78.8,77.0,94,29.68,5.0,Calm,Calm,-,N/A,Rain,Light Rain,0,2013-09-18 16:00:00
11:30 PM,78.8,77.0,94,29.68,5.0,Calm,Calm,-,N/A,Rain,Light Rain,0,2013-09-18 16:30:00